sat.trackr.live / text

‹ back to catalog

STARLINK-31695

NORAD 59376 · 2024-062C

PAYLOAD ACTIVE UNKNOWN

§ Identity

Operator
Country
US
Launch date
2024-04-02
Launch site
AFWTR
Launch vehicle
Mass (kg)
RCS (m²)

Purposes: comms

External: N2YO · Heavens-Above · Gunter

§ Orbital elements

Epoch: 2026-09-20T21:36:05.294592Z

Period
93.85 min
Inclination
53.1611°
Eccentricity
0.0000613
Mean motion
15.34410321 rev/d
Perigee alt
462.3 km
Apogee alt
463.1 km
Semi-major
6,840.8 km
B*
1.6726e-4
RAAN
65.7658°
Arg perigee
126.4736°
Mean anomaly
233.6323°
Rev number
13,956

§ Raw data

STARLINK-316951 59376U 24062C   26263.90006128  .00005281  00000+0  16726-3 0  99992 59376  53.1611  65.7658 0000613 126.4736 233.6323 15.34410321139565

JSON: /api/v1/satellites/59376 · /tle

For live sub-satellite position, see the globe view (requires WebGL).

§ Visibility from observer

Set your observer location to see the next 7 days of passes ≥ 10°. The values pass through the URL so the page stays shareable.

No JS? Fill the form by hand. The geolocation button needs JavaScript.